Location: Franzen
(48.6167°N, 15.3833°E)
Time: 13:21:32
(UTC+00:00)

ATLAS 2AS CENTAUR R/B - Pass Details

Date: 22 April 2021
Orbit: 949 x 1263 km, 63.7° (Epoch: 07 May)

Event Time Altitude Azimuth Distance (km) Brightness Sun altitude
Rises 18:51:15 0° 236° (SW) 4,205 6.2 -8.4°
Reaches altitude 10° 18:54:07 10° 240° (WSW) 3,245 5.6 -8.9°
Maximum altitude 19:01:54 59° 319° (NW) 1,429 3.7 -10.0°
Drops below altitude 10° 19:09:30 10° 39° (NE) 3,165 5.1 -11.0°
Sets 19:12:17 0° 43° (NE) 4,095 5.7 -11.4°
